CZ-6A DEB, 61472

Orbit data source: Space-Track

CZ-6A DEB, 61472 is space debris in LEO originally from a launch on Tue, 06 Aug 2024 UTC launched from the Taiyaun Space Center, China (TSC). Debris objects in space refer to the collection of defunct objects orbiting the Earth. Examples of debris include non-operational satellites, rocket bodies, and fragments generated from explosions, collisions, or faulty payload assembly.

Loading next visibility...
Identifier
61472, 2024-140AAE
Orbit
LEO
Country
Flag of CNCN / PRC
Related business
Manufacturer
SAST
Mission
Spacecraft
Bus & Motor
Unknown
Mass
Unknown
Launch date (UTC)
2024-08-06 (2 years ago)
Launch vehicle
Unknown
Launch site
Taiyaun Space Center, China (TSC)
Object type
Payload
Rocket body
Debris
Shape & HBR
Unknown shape, 0.1 m
Radar Cross Section
Medium (>0.1 m² and <1 m²)

Expand to show TLE details & history
Last TLE update: 2 days ago

TLE from 2 days ago
0 CZ-6A DEB
1 61472U 24140AAE 26169.56798848  .00000679  00000-0  51725-3 0  9995
2 61472  89.0396 282.5310 0227075 315.6126  42.7033 13.81416973 90084
Epoch: 2026-06-18T13:37Z
TLE epoch observation values (Epoch: 2026-06-18T13:37:54.204Z)
Latitude
0.00001°
Longitude
171.2457°
Altitude
841.192 km
Speed
7.493 km/s
True Right ascension
18h 50m 07s
True Declination
0° 00' 00"
Sunlit
Object was in full shadow at epoch
Visualization orbit readout
Latitude
Unknown
Longitude
Unknown
Altitude
Unknown
Speed
Unknown
Apparent Right ascension
Unknown
Apparent Declination
Unknown
Sunlit
N/A
Visualization observer readout
Local Sidereal Time
10:19:46
Azimuth
Unknown
Elevation
Unknown
Doppler factor
Unknown
Orbital elements
Apogee altitude
1,122.406 km
Perigee altitude
789.333 km
Semi-major axis
7,334.007 km
Eccentricity
0.02271
Inclination
89.0396°
RAAN
282.531°
Arg. of periapsis
315.6126°
True anomaly
44.50531°
Mean anomaly
42.7033°
Eccentric anomaly
43.60053°
Mean motion
3.45566 °/min
Orbital period
104.18 mins
BSTAR
0.00051725
Loading maneuver chart data...
Computing Atmospheric mass density...
Loading historical data...
Loading historical data...
Loading historical data...
Loading historical data...
Loading historical data...
Loading historical data...
Loading historical data...

Documentation

Showing up to 5 results
|